contact:dominique.lefevre@mio.osupytheas.fr, maurice.libes@osupytheas.fr, didier.mallarino@osupytheas.fr
Project:EMSO http://www.emso-fr.org/EMSO-France
Depth: 2436.0 m
Title:EMSO Ligure Ouest : Data MII capteur AQUADOPP
Date,Latitude,Longitude,X_East,Y_North,Z_Up,Amplitude_X,Amplitude_Y,Amplitude_Z,Batterie,SoundSpeed,Heading,Pitch,Roll,Pressure,TIS,Speed,Direction
, degrees North, degrees East, m.s-1, m.s-1,m.s-1, 1, 1, 1, Volt, m.s-1, degree, degree, degree, dbar, degree_C, m.s-1, degree
2023-03-06T00:04:03,42.805,6.029,-0.014,0.014,-0.037,105.0,104.0,103.0,13.3,1505.2,339.1,-0.8,1.8,2471.2,13.29,0.019,315.0
2023-03-06T00:07:03,42.805,6.029,-0.009,0.015,-0.031,104.0,105.0,103.0,13.4,1505.2,321.6,-0.8,1.8,2471.218,13.29,0.017,329.0
2023-03-06T00:10:03,42.805,6.029,-0.012,0.015,-0.022,102.0,105.0,103.0,13.3,1505.2,327.6,-0.8,1.8,2471.229,13.29,0.019,321.3
2023-03-06T00:13:03,42.805,6.029,0.001,-0.001,-0.009,105.0,104.0,102.0,13.3,1505.2,331.2,-0.8,1.8,2471.132,13.29,0.001,135.0
2023-03-06T00:16:03,42.805,6.029,0.001,0.014,-0.019,104.0,105.0,103.0,13.3,1505.2,336.3,-0.8,1.8,2471.223,13.29,0.014,4.1
2023-03-06T00:19:03,42.805,6.029,-0.005,0.007,-0.027,106.0,105.0,102.0,13.3,1505.2,328.8,-0.8,1.8,2471.181,13.29,0.008,324.5
2023-03-06T00:22:03,42.805,6.029,-0.015,0.025,-0.033,104.0,106.0,103.0,13.3,1505.2,328.8,-0.8,1.8,2471.232,13.29,0.029,329.0
2023-03-06T00:25:03,42.805,6.029,-0.003,0.021,-0.005,104.0,106.0,103.0,13.4,1505.2,321.6,-0.8,1.8,2471.178,13.29,0.021,351.9
2023-03-06T00:28:03,42.805,6.029,-0.011,0.008,-0.016,104.0,112.0,103.0,13.3,1505.2,340.6,-0.8,1.8,2471.136,13.29,0.013,306.0
2023-03-06T00:31:02,42.805,6.029,-0.02,-0.006,-0.003,104.0,105.0,104.0,13.4,1505.2,334.3,-0.8,1.8,2471.147,13.29,0.02,253.3
2023-03-06T00:34:03,42.805,6.029,-0.028,0.012,-0.028,105.0,104.0,103.0,13.3,1505.2,319.7,-0.7,1.8,2471.188,13.29,0.03,293.2
2023-03-06T00:37:02,42.805,6.029,-0.021,0.007,0.008,105.0,105.0,103.0,13.3,1505.2,335.3,-0.7,1.8,2471.184,13.29,0.022,288.4
2023-03-06T00:40:02,42.805,6.029,-0.015,-0.019,-0.011,105.0,103.0,104.0,13.4,1505.2,330.7,-0.7,1.8,2471.182,13.29,0.024,218.3
2023-03-06T00:43:02,42.805,6.029,-0.005,0.001,-0.027,105.0,105.0,103.0,13.4,1505.2,339.9,-0.8,1.8,2471.174,13.29,0.005,281.3
2023-03-06T00:46:02,42.805,6.029,-0.001,0.006,-0.021,105.0,106.0,104.0,13.3,1505.2,338.9,-0.7,1.8,2471.15,13.29,0.006,350.5
2023-03-06T00:49:02,42.805,6.029,-0.014,0.015,-0.014,104.0,103.0,104.0,13.4,1505.2,325.6,-0.8,1.8,2471.149,13.29,0.02,317.0
2023-03-06T00:52:02,42.805,6.029,0.002,0.017,-0.046,105.0,105.0,104.0,13.4,1505.2,333.8,-0.7,1.8,2471.14,13.29,0.017,6.7
2023-03-06T00:55:03,42.805,6.029,0.012,0.001,-0.039,105.0,105.0,103.0,13.4,1505.2,318.3,-0.7,1.8,2471.171,13.29,0.012,85.2
2023-03-06T00:58:03,42.805,6.029,-0.019,-0.007,-0.03,104.0,104.0,103.0,13.3,1505.2,316.7,-0.8,1.8,2471.12,13.29,0.02,249.8
2023-03-06T01:04:02,42.805,6.029,0.0,0.029,0.006,106.0,106.0,106.0,13.4,1505.2,340.6,-0.8,1.9,2471.176,13.29,0.028,0.0
2023-03-06T01:07:02,42.805,6.029,-0.01,0.016,-0.029,106.0,103.0,103.0,13.4,1505.2,337.2,-0.8,1.8,2471.18,13.29,0.018,328.0
2023-03-06T01:10:03,42.805,6.029,0.005,-0.004,-0.023,105.0,103.0,104.0,13.4,1505.2,340.6,-0.8,1.8,2471.152,13.29,0.006,128.7
2023-03-06T01:13:03,42.805,6.029,-0.008,0.013,-0.003,104.0,103.0,102.0,13.4,1505.2,317.8,-0.7,1.8,2471.18,13.29,0.015,328.4
2023-03-06T01:16:03,42.805,6.029,-0.009,0.021,0.017,104.0,105.0,102.0,13.4,1505.2,331.7,-0.8,1.8,2471.159,13.29,0.022,336.8
2023-03-06T01:19:03,42.805,6.029,-0.019,0.006,-0.046,107.0,102.0,103.0,13.4,1505.2,330.1,-0.8,1.8,2471.154,13.29,0.019,287.5
2023-03-06T01:22:02,42.805,6.029,0.001,0.002,-0.024,105.0,104.0,103.0,13.4,1505.2,321.4,-0.7,1.8,2471.177,13.29,0.002,26.6
2023-03-06T01:25:03,42.805,6.029,-0.013,0.0,-0.053,106.0,103.0,103.0,13.4,1505.2,322.9,-0.8,1.8,2471.166,13.29,0.013,270.0
2023-03-06T01:28:03,42.805,6.029,0.005,-0.007,-0.027,104.0,104.0,102.0,13.4,1505.2,338.5,-0.8,1.8,2471.198,13.29,0.008,144.5
2023-03-06T01:31:03,42.805,6.029,0.002,-0.001,-0.017,105.0,105.0,103.0,13.4,1505.2,319.4,-0.8,1.8,2471.174,13.3,0.002,116.6
2023-03-06T01:34:03,42.805,6.029,0.006,-0.001,-0.001,103.0,106.0,104.0,13.4,1505.2,318.9,-0.7,1.8,2471.14,13.3,0.006,99.5
2023-03-06T01:37:03,42.805,6.029,-0.008,-0.005,-0.022,106.0,105.0,103.0,13.3,1505.2,330.1,-0.7,1.8,2471.187,13.3,0.009,238.0
2023-03-06T01:40:03,42.805,6.029,0.01,0.005,-0.001,105.0,105.0,103.0,13.4,1505.2,327.0,-0.8,1.8,2471.176,13.29,0.011,63.4
2023-03-06T01:43:03,42.805,6.029,0.012,0.0,-0.019,105.0,105.0,102.0,13.4,1505.2,325.0,-0.8,1.8,2471.153,13.29,0.012,90.0
2023-03-06T01:46:03,42.805,6.029,0.0,-0.007,0.001,106.0,104.0,104.0,13.4,1505.2,318.3,-0.8,1.8,2471.189,13.29,0.007,180.0
2023-03-06T01:49:03,42.805,6.029,-0.002,-0.007,0.001,105.0,106.0,104.0,13.4,1505.2,329.8,-0.8,1.9,2471.125,13.29,0.007,195.9
2023-03-06T01:52:03,42.805,6.029,0.009,-0.011,-0.003,104.0,104.0,105.0,13.4,1505.2,327.0,-0.8,1.8,2471.142,13.29,0.014,140.7
2023-03-06T01:55:03,42.805,6.029,-0.003,-0.021,-0.027,103.0,106.0,103.0,13.4,1505.2,328.3,-0.8,1.8,2471.18,13.29,0.021,188.1
2023-03-06T01:58:03,42.805,6.029,-0.006,-0.01,-0.019,106.0,104.0,104.0,13.4,1505.2,326.0,-0.8,1.8,2471.144,13.29,0.011,211.0
2023-03-06T02:04:02,42.805,6.029,0.018,-0.014,0.007,104.0,105.0,103.0,13.4,1505.2,329.3,-0.8,1.8,2471.202,13.29,0.022,127.9
2023-03-06T02:07:03,42.805,6.029,0.022,-0.01,-0.034,104.0,105.0,104.0,13.4,1505.2,330.8,-0.8,1.8,2471.224,13.29,0.024,114.4
2023-03-06T02:10:03,42.805,6.029,0.007,-0.008,-0.023,105.0,105.0,103.0,13.4,1505.2,325.2,-0.8,1.8,2471.205,13.29,0.01,138.8
2023-03-06T02:13:03,42.805,6.029,-0.003,0.001,0.012,106.0,105.0,103.0,13.4,1505.2,338.3,-0.8,1.8,2471.207,13.29,0.003,288.4
2023-03-06T02:16:03,42.805,6.029,0.005,-0.016,-0.02,107.0,105.0,104.0,13.4,1505.2,324.2,-0.8,1.8,2471.2,13.29,0.016,162.6
2023-03-06T02:19:03,42.805,6.029,0.008,-0.016,-0.011,104.0,105.0,104.0,13.4,1505.2,331.5,-0.8,1.8,2471.176,13.29,0.017,153.4
2023-03-06T02:22:03,42.805,6.029,0.008,0.014,-0.008,105.0,104.0,104.0,13.4,1505.2,321.4,-0.7,1.8,2471.176,13.29,0.016,29.7
2023-03-06T02:25:03,42.805,6.029,0.022,0.008,-0.007,104.0,105.0,104.0,13.4,1505.2,321.0,-0.7,1.8,2471.176,13.29,0.023,70.0
2023-03-06T02:28:03,42.805,6.029,0.012,0.001,-0.008,105.0,105.0,104.0,13.4,1505.2,321.5,-0.8,1.8,2471.17,13.29,0.012,85.2
2023-03-06T02:31:03,42.805,6.029,-0.001,0.01,-0.006,106.0,105.0,103.0,13.3,1505.2,320.9,-0.8,1.8,2471.166,13.29,0.01,354.3
2023-03-06T02:34:03,42.805,6.029,0.006,-0.017,-0.018,106.0,106.0,103.0,13.3,1505.2,332.1,-0.8,1.8,2471.204,13.29,0.018,160.6
2023-03-06T02:37:03,42.805,6.029,0.017,-0.009,0.019,105.0,105.0,103.0,13.4,1505.2,338.5,-0.8,1.9,2471.21,13.29,0.019,117.9
2023-03-06T02:40:03,42.805,6.029,0.017,-0.004,-0.03,107.0,106.0,103.0,13.4,1505.2,329.4,-0.7,1.8,2471.205,13.29,0.017,103.2
2023-03-06T02:43:03,42.805,6.029,0.005,0.005,-0.005,106.0,106.0,104.0,13.4,1505.2,319.8,-0.7,1.8,2471.185,13.29,0.007,45.0
2023-03-06T02:46:03,42.805,6.029,0.008,-0.004,-0.028,105.0,106.0,103.0,13.3,1505.2,319.3,-0.7,1.9,2471.212,13.29,0.008,116.6
2023-03-06T02:49:03,42.805,6.029,0.007,-0.011,-0.031,107.0,105.0,103.0,13.4,1505.2,331.8,-0.8,1.8,2471.19,13.29,0.013,147.5
2023-03-06T02:52:03,42.805,6.029,0.014,-0.005,0.003,105.0,105.0,105.0,13.4,1505.2,330.7,-0.7,1.8,2471.215,13.29,0.014,109.6
2023-03-06T02:55:03,42.805,6.029,0.034,0.0,-0.012,105.0,106.0,103.0,13.4,1505.2,322.9,-0.8,1.8,2471.217,13.29,0.034,90.0
2023-03-06T02:58:03,42.805,6.029,0.014,0.007,-0.008,105.0,105.0,105.0,13.4,1505.2,318.9,-0.8,1.8,2471.218,13.29,0.015,63.4
2023-03-06T03:04:03,42.805,6.029,0.03,-0.02,0.0,106.0,105.0,104.0,13.3,1505.2,329.8,-0.8,1.8,2471.241,13.28,0.036,123.7
2023-03-06T03:07:03,42.805,6.029,0.012,-0.014,-0.01,106.0,105.0,103.0,13.4,1505.2,321.5,-0.8,1.8,2471.283,13.29,0.018,139.4
2023-03-06T03:10:03,42.805,6.029,0.012,-0.002,-0.008,106.0,105.0,104.0,13.4,1505.2,316.2,-0.8,1.8,2471.277,13.29,0.012,99.5
2023-03-06T03:13:03,42.805,6.029,0.017,-0.01,-0.008,107.0,105.0,103.0,13.4,1505.2,323.2,-0.8,1.8,2471.22,13.29,0.019,120.5
2023-03-06T03:16:03,42.805,6.029,0.015,-0.019,-0.03,104.0,104.0,103.0,13.4,1505.2,328.7,-0.8,1.8,2471.222,13.29,0.024,141.7
2023-03-06T03:19:03,42.805,6.029,0.03,0.003,-0.009,106.0,105.0,103.0,13.3,1505.2,322.1,-0.8,1.9,2471.251,13.29,0.03,84.3
2023-03-06T03:22:03,42.805,6.029,0.008,-0.029,-0.017,106.0,105.0,104.0,13.4,1505.2,334.7,-0.7,1.8,2471.233,13.29,0.03,164.6
2023-03-06T03:25:03,42.805,6.029,0.007,-0.021,-0.009,106.0,104.0,104.0,13.4,1505.2,341.2,-0.8,1.8,2471.23,13.29,0.022,161.6
2023-03-06T03:28:03,42.805,6.029,0.024,-0.016,-0.014,108.0,105.0,104.0,13.3,1505.2,328.3,-0.8,1.8,2471.243,13.29,0.028,123.7
2023-03-06T03:31:03,42.805,6.029,0.031,-0.027,-0.014,105.0,105.0,103.0,13.3,1505.2,335.7,-0.8,1.8,2471.209,13.29,0.041,131.1
2023-03-06T03:34:03,42.805,6.029,0.032,-0.038,-0.013,108.0,107.0,103.0,13.4,1505.2,334.2,-0.8,1.8,2471.257,13.29,0.049,139.9
2023-03-06T03:37:03,42.805,6.029,0.061,-0.009,-0.028,106.0,106.0,105.0,13.4,1505.2,316.7,-0.8,1.8,2471.29,13.29,0.061,98.4
2023-03-06T03:40:03,42.805,6.029,0.021,-0.022,-0.02,107.0,105.0,105.0,13.4,1505.2,325.3,-0.8,1.8,2471.18,13.29,0.03,136.3
2023-03-06T03:43:03,42.805,6.029,0.012,-0.012,-0.007,109.0,105.0,105.0,13.4,1505.2,325.7,-0.8,1.8,2471.243,13.29,0.016,135.0
2023-03-06T03:46:03,42.805,6.029,0.009,-0.045,-0.013,107.0,106.0,104.0,13.4,1505.2,339.5,-0.8,1.8,2471.261,13.29,0.045,168.7
2023-03-06T03:49:03,42.805,6.029,0.003,-0.052,-0.016,106.0,107.0,104.0,13.4,1505.2,331.6,-0.8,1.8,2471.261,13.29,0.052,176.7
2023-03-06T03:52:03,42.805,6.029,0.003,-0.034,-0.017,107.0,105.0,103.0,13.3,1505.2,335.4,-0.8,1.8,2471.284,13.29,0.034,175.0
2023-03-06T03:55:03,42.805,6.029,0.001,-0.031,-0.032,105.0,105.0,104.0,13.4,1505.2,318.6,-0.8,1.8,2471.26,13.29,0.031,178.2
2023-03-06T03:58:03,42.805,6.029,-0.006,-0.007,-0.032,106.0,105.0,103.0,13.4,1505.2,322.2,-0.8,1.8,2471.282,13.29,0.009,220.6
2023-03-06T04:04:03,42.805,6.029,0.009,-0.022,-0.016,106.0,106.0,104.0,13.3,1505.2,329.5,-0.8,1.8,2471.348,13.28,0.023,157.8
2023-03-06T04:07:03,42.805,6.029,-0.005,-0.024,-0.02,107.0,105.0,104.0,13.3,1505.2,337.8,-0.8,1.8,2471.333,13.28,0.024,191.8
2023-03-06T04:10:03,42.805,6.029,-0.005,-0.027,-0.022,107.0,105.0,104.0,13.4,1505.2,335.7,-0.8,1.8,2471.292,13.29,0.027,190.5
2023-03-06T04:13:03,42.805,6.029,0.001,-0.034,-0.04,106.0,107.0,105.0,13.4,1505.2,330.7,-0.8,1.8,2471.301,13.29,0.034,178.3
2023-03-06T04:16:03,42.805,6.029,0.0,-0.03,-0.057,104.0,107.0,105.0,13.4,1505.2,336.3,-0.7,1.9,2471.315,13.29,0.03,180.0
2023-03-06T04:19:03,42.805,6.029,0.0,-0.037,-0.025,106.0,107.0,104.0,13.3,1505.2,318.9,-0.8,1.8,2471.289,13.29,0.037,180.0
2023-03-06T04:22:03,42.805,6.029,0.013,-0.032,-0.014,106.0,106.0,104.0,13.4,1505.2,328.2,-0.8,1.8,2471.289,13.29,0.034,157.9
2023-03-06T04:25:03,42.805,6.029,0.028,-0.021,-0.011,106.0,107.0,103.0,13.4,1505.2,321.5,-0.7,1.8,2471.306,13.29,0.035,126.9
2023-03-06T04:28:03,42.805,6.029,-0.003,-0.021,0.0,107.0,105.0,104.0,13.4,1505.2,326.0,-0.8,1.8,2471.298,13.29,0.021,188.1
2023-03-06T04:31:03,42.805,6.029,-0.004,-0.018,-0.032,107.0,106.0,104.0,13.4,1505.2,339.3,-0.7,1.8,2471.325,13.29,0.018,192.5
2023-03-06T04:34:03,42.805,6.029,0.013,-0.019,-0.005,108.0,106.0,103.0,13.3,1505.2,323.2,-0.8,1.8,2471.285,13.29,0.023,145.6
2023-03-06T04:37:03,42.805,6.029,0.003,-0.032,-0.002,106.0,105.0,104.0,13.4,1505.2,315.5,-0.7,1.8,2471.338,13.29,0.032,174.6
2023-03-06T04:40:03,42.805,6.029,0.02,-0.014,-0.02,106.0,104.0,104.0,13.4,1505.2,322.3,-0.7,1.8,2471.283,13.29,0.024,125.0
2023-03-06T04:43:03,42.805,6.029,-0.004,-0.03,-0.025,106.0,105.0,105.0,13.4,1505.2,323.6,-0.8,1.8,2471.322,13.29,0.03,187.6
2023-03-06T04:46:03,42.805,6.029,-0.011,-0.02,0.001,106.0,104.0,105.0,13.4,1505.2,323.9,-0.8,1.8,2471.345,13.29,0.022,208.8
2023-03-06T04:49:03,42.805,6.029,-0.011,-0.017,-0.031,106.0,105.0,104.0,13.4,1505.2,322.7,-0.8,1.8,2471.324,13.29,0.02,212.9
2023-03-06T04:52:03,42.805,6.029,-0.014,-0.023,-0.041,106.0,104.0,103.0,13.4,1505.2,330.3,-0.8,1.8,2471.359,13.29,0.026,211.3
2023-03-06T04:55:03,42.805,6.029,0.011,-0.004,0.009,107.0,105.0,104.0,13.4,1505.2,325.3,-0.8,1.8,2471.325,13.29,0.011,110.0
2023-03-06T04:58:03,42.805,6.029,0.022,-0.032,-0.016,106.0,106.0,104.0,13.4,1505.2,322.9,-0.7,1.8,2471.292,13.29,0.038,145.5
2023-03-06T05:04:03,42.805,6.029,-0.001,-0.035,-0.047,107.0,106.0,104.0,13.3,1505.2,326.0,-0.8,1.8,2471.386,13.28,0.035,181.6
2023-03-06T05:07:03,42.805,6.029,0.011,-0.027,-0.044,106.0,107.0,105.0,13.3,1505.2,320.5,-0.8,1.8,2471.384,13.28,0.029,157.8
2023-03-06T05:10:03,42.805,6.029,-0.001,-0.026,-0.012,106.0,107.0,104.0,13.4,1505.2,329.4,-0.7,1.9,2471.395,13.28,0.026,182.2
2023-03-06T05:13:03,42.805,6.029,-0.006,-0.023,-0.049,106.0,106.0,104.0,13.3,1505.2,323.4,-0.7,1.8,2471.375,13.29,0.023,194.6
2023-03-06T05:16:03,42.805,6.029,0.004,-0.026,-0.019,106.0,106.0,104.0,13.3,1505.2,332.2,-0.7,1.8,2471.422,13.29,0.026,171.3
2023-03-06T05:19:03,42.805,6.029,0.001,-0.028,-0.006,106.0,106.0,105.0,13.4,1505.2,319.9,-0.7,1.8,2471.437,13.29,0.028,178.0
2023-03-06T05:22:03,42.805,6.029,-0.01,-0.015,-0.036,107.0,105.0,104.0,13.3,1505.2,329.9,-0.8,1.8,2471.36,13.29,0.018,213.7
2023-03-06T05:25:03,42.805,6.029,0.012,-0.026,-0.029,105.0,105.0,105.0,13.4,1505.2,329.3,-0.7,1.9,2471.376,13.29,0.028,155.2
2023-03-06T05:28:03,42.805,6.029,0.003,-0.035,-0.027,104.0,106.0,104.0,13.4,1505.2,329.3,-0.7,1.8,2471.405,13.29,0.035,175.1
2023-03-06T05:31:03,42.805,6.029,-0.009,-0.022,-0.008,106.0,105.0,102.0,13.3,1505.2,340.6,-0.7,1.8,2471.384,13.29,0.023,202.2
2023-03-06T05:34:03,42.805,6.029,-0.007,-0.022,-0.012,106.0,105.0,103.0,13.4,1505.2,315.6,-0.8,1.8,2471.364,13.29,0.023,197.6
2023-03-06T05:37:03,42.805,6.029,-0.018,-0.012,-0.022,105.0,104.0,103.0,13.4,1505.2,326.0,-0.8,1.8,2471.332,13.29,0.021,236.3
2023-03-06T05:40:03,42.805,6.029,0.002,-0.014,-0.03,105.0,105.0,104.0,13.4,1505.2,321.4,-0.8,1.8,2471.39,13.29,0.014,171.9
2023-03-06T05:43:03,42.805,6.029,-0.022,0.003,-0.035,105.0,105.0,103.0,13.4,1505.2,330.5,-0.8,1.8,2471.369,13.29,0.022,277.8
2023-03-06T05:46:03,42.805,6.029,-0.017,0.003,-0.008,105.0,104.0,104.0,13.4,1505.2,335.4,-0.7,1.8,2471.393,13.29,0.017,280.0
2023-03-06T05:49:03,42.805,6.029,-0.017,-0.031,-0.032,105.0,104.0,105.0,13.4,1505.2,323.3,-0.8,1.8,2471.433,13.29,0.035,208.7
2023-03-06T05:52:03,42.805,6.029,0.006,-0.025,0.0,105.0,105.0,104.0,13.3,1505.2,334.3,-0.7,1.8,2471.389,13.29,0.025,166.5
2023-03-06T05:55:03,42.805,6.029,-0.018,-0.009,-0.015,106.0,104.0,104.0,13.3,1505.2,335.7,-0.7,1.8,2471.364,13.29,0.02,243.4
2023-03-06T05:58:03,42.805,6.029,-0.003,-0.029,-0.003,105.0,104.0,103.0,13.3,1505.2,333.4,-0.8,1.8,2471.383,13.29,0.029,185.9
2023-03-06T06:04:03,42.805,6.029,-0.022,-0.007,-0.03,105.0,104.0,103.0,13.3,1505.2,334.1,-0.7,1.8,2471.429,13.28,0.023,252.4
2023-03-06T06:07:03,42.805,6.029,-0.016,-0.002,-0.021,104.0,104.0,103.0,13.4,1505.2,326.3,-0.8,1.8,2471.462,13.28,0.016,262.9
2023-03-06T06:10:03,42.805,6.029,-0.015,-0.009,-0.01,105.0,104.0,103.0,13.4,1505.2,324.5,-0.8,1.8,2471.449,13.29,0.017,239.0
2023-03-06T06:13:03,42.805,6.029,-0.021,-0.001,-0.005,105.0,105.0,103.0,13.3,1505.2,335.2,-0.8,1.8,2471.415,13.29,0.021,267.3
2023-03-06T06:16:03,42.805,6.029,-0.022,-0.007,-0.019,107.0,103.0,102.0,13.4,1505.2,338.0,-0.8,1.8,2471.391,13.29,0.023,252.4
2023-03-06T06:19:03,42.805,6.029,0.001,-0.017,-0.03,105.0,105.0,103.0,13.4,1505.2,326.0,-0.8,1.8,2471.422,13.29,0.017,176.6
2023-03-06T06:22:03,42.805,6.029,-0.015,-0.009,-0.008,106.0,103.0,103.0,13.4,1505.2,324.5,-0.8,1.8,2471.421,13.29,0.017,239.0
2023-03-06T06:25:03,42.805,6.029,0.0,-0.009,-0.028,105.0,105.0,104.0,13.4,1505.2,338.0,-0.8,1.8,2471.435,13.29,0.009,180.0
2023-03-06T06:28:03,42.805,6.029,0.005,-0.021,-0.03,105.0,105.0,103.0,13.4,1505.2,322.5,-0.8,1.8,2471.41,13.29,0.021,166.6
2023-03-06T06:31:03,42.805,6.029,-0.002,-0.011,-0.041,105.0,105.0,103.0,13.3,1505.2,332.5,-0.8,1.8,2471.425,13.29,0.011,190.3
2023-03-06T06:34:03,42.805,6.029,-0.009,-0.007,-0.07,105.0,105.0,104.0,13.4,1505.2,334.7,-0.8,1.8,2471.399,13.29,0.011,232.1
2023-03-06T06:37:03,42.805,6.029,-0.012,-0.019,-0.045,105.0,104.0,104.0,13.4,1505.2,334.4,-0.8,1.8,2471.395,13.29,0.022,212.3
2023-03-06T06:40:03,42.805,6.029,0.016,0.0,-0.034,103.0,104.0,103.0,13.3,1505.2,326.9,-0.8,1.8,2471.425,13.29,0.016,90.0
2023-03-06T06:43:03,42.805,6.029,0.009,-0.029,-0.043,105.0,106.0,103.0,13.4,1505.2,328.0,-0.8,1.8,2471.423,13.29,0.03,162.8
2023-03-06T06:46:03,42.805,6.029,-0.012,-0.018,-0.058,104.0,103.0,103.0,13.4,1505.2,320.4,-0.8,1.8,2471.412,13.29,0.021,213.7
2023-03-06T06:49:03,42.805,6.029,-0.018,-0.016,-0.024,104.0,103.0,104.0,13.4,1505.2,329.3,-0.7,1.8,2471.422,13.29,0.024,228.4
2023-03-06T06:52:03,42.805,6.029,-0.011,-0.032,-0.033,104.0,105.0,103.0,13.4,1505.2,329.9,-0.8,1.8,2471.445,13.29,0.033,199.0
2023-03-06T06:55:03,42.805,6.029,-0.023,0.011,-0.012,104.0,104.0,103.0,13.4,1505.2,331.6,-0.8,1.8,2471.45,13.29,0.025,295.6
2023-03-06T06:58:03,42.805,6.029,-0.002,-0.024,-0.012,105.0,104.0,102.0,13.3,1505.2,320.5,-0.8,1.8,2471.445,13.29,0.024,184.8
2023-03-06T07:04:03,42.805,6.029,-0.029,-0.011,-0.023,105.0,103.0,102.0,13.4,1505.2,328.3,-0.7,1.8,2471.477,13.29,0.031,249.2
2023-03-06T07:07:03,42.805,6.029,0.001,-0.012,-0.037,105.0,104.0,102.0,13.4,1505.2,322.6,-0.8,1.8,2471.459,13.29,0.012,175.2
2023-03-06T07:10:03,42.805,6.029,-0.02,-0.007,-0.007,106.0,103.0,103.0,13.4,1505.2,319.2,-0.7,1.8,2471.481,13.29,0.021,250.7
2023-03-06T07:13:03,42.805,6.029,-0.006,-0.009,-0.047,105.0,104.0,103.0,13.4,1505.2,325.2,-0.7,1.8,2471.492,13.29,0.01,213.7
2023-03-06T07:16:03,42.805,6.029,-0.011,-0.022,-0.029,106.0,104.0,104.0,13.4,1505.2,328.5,-0.7,1.8,2471.443,13.29,0.024,206.6
2023-03-06T07:19:03,42.805,6.029,-0.027,-0.005,-0.02,104.0,106.0,104.0,13.3,1505.2,333.9,-0.7,1.8,2471.428,13.29,0.027,259.5
2023-03-06T07:22:03,42.805,6.029,-0.005,-0.009,-0.044,105.0,104.0,103.0,13.3,1505.2,326.5,-0.8,1.8,2471.45,13.29,0.01,209.1
2023-03-06T07:25:03,42.805,6.029,-0.032,-0.012,-0.02,105.0,107.0,106.0,13.3,1505.2,336.6,-0.7,1.8,2471.437,13.29,0.034,249.4
2023-03-06T07:28:03,42.805,6.029,-0.012,0.004,-0.017,106.0,104.0,103.0,13.4,1505.2,325.6,-0.7,1.8,2471.436,13.29,0.012,288.4
2023-03-06T07:31:03,42.805,6.029,-0.022,-0.015,-0.056,106.0,104.0,103.0,13.4,1505.2,334.7,-0.8,1.8,2471.413,13.29,0.026,235.7
2023-03-06T07:34:03,42.805,6.029,-0.014,-0.001,-0.02,105.0,103.0,103.0,13.4,1505.2,324.1,-0.8,1.8,2471.415,13.29,0.014,265.9
2023-03-06T07:37:03,42.805,6.029,-0.032,0.011,-0.007,104.0,105.0,103.0,13.4,1505.2,341.2,-0.8,1.8,2471.461,13.29,0.033,289.0
2023-03-06T07:40:03,42.805,6.029,-0.018,0.005,0.0,104.0,105.0,104.0,13.3,1505.2,339.5,-0.8,1.8,2471.456,13.29,0.018,285.5
2023-03-06T07:43:03,42.805,6.029,-0.023,0.013,-0.006,104.0,102.0,103.0,13.3,1505.2,330.3,-0.8,1.9,2471.411,13.29,0.026,299.5
2023-03-06T07:46:03,42.805,6.029,-0.022,-0.005,-0.027,104.0,103.0,103.0,13.4,1505.2,317.7,-0.8,1.8,2471.43,13.29,0.022,257.2
2023-03-06T07:49:03,42.805,6.029,-0.028,0.0,-0.057,104.0,106.0,103.0,13.3,1505.2,320.9,-0.8,1.8,2471.436,13.29,0.028,270.0
2023-03-06T07:52:03,42.805,6.029,-0.036,0.013,-0.029,104.0,103.0,103.0,13.4,1505.2,333.8,-0.8,1.8,2471.442,13.29,0.038,289.9
2023-03-06T07:55:03,42.805,6.029,-0.023,0.005,-0.026,104.0,105.0,105.0,13.4,1505.2,332.9,-0.7,1.8,2471.445,13.29,0.023,282.3
2023-03-06T07:58:03,42.805,6.029,-0.028,0.019,0.02,105.0,104.0,104.0,13.4,1505.2,321.8,-0.8,1.8,2471.454,13.29,0.033,304.2
2023-03-06T08:04:03,42.805,6.029,-0.027,0.022,-0.017,105.0,103.0,103.0,13.4,1505.2,334.8,-0.8,1.8,2471.503,13.28,0.034,309.2
2023-03-06T08:07:03,42.805,6.029,-0.014,-0.027,-0.042,104.0,105.0,104.0,13.3,1505.2,325.4,-0.8,1.8,2471.457,13.29,0.03,207.4
2023-03-06T08:10:03,42.805,6.029,-0.004,0.016,-0.021,105.0,105.0,104.0,13.3,1505.2,336.6,-0.8,1.8,2471.44,13.29,0.016,346.0
2023-03-06T08:13:03,42.805,6.029,-0.045,0.012,-0.026,105.0,104.0,102.0,13.3,1505.2,330.5,-0.8,1.8,2471.471,13.29,0.046,284.9
2023-03-06T08:16:03,42.805,6.029,-0.025,0.005,-0.017,106.0,103.0,103.0,13.3,1505.2,324.3,-0.7,1.8,2471.489,13.29,0.025,281.3
2023-03-06T08:19:03,42.805,6.029,-0.027,0.009,-0.037,106.0,102.0,103.0,13.4,1505.2,325.4,-0.8,1.8,2471.488,13.29,0.028,288.4
2023-03-06T08:22:03,42.805,6.029,-0.022,-0.012,-0.012,105.0,103.0,103.0,13.4,1505.2,317.2,-0.8,1.8,2471.456,13.29,0.025,241.4
2023-03-06T08:25:03,42.805,6.029,-0.03,0.016,-0.017,104.0,103.0,103.0,13.4,1505.2,318.2,-0.8,1.8,2471.41,13.29,0.034,298.1
2023-03-06T08:28:03,42.805,6.029,-0.05,0.0,-0.042,104.0,103.0,102.0,13.3,1505.2,325.4,-0.8,1.8,2471.413,13.29,0.05,270.0
2023-03-06T08:31:03,42.805,6.029,-0.004,-0.005,-0.028,105.0,103.0,103.0,13.4,1505.2,324.7,-0.8,1.8,2471.41,13.29,0.006,218.7
2023-03-06T08:34:03,42.805,6.029,-0.026,-0.014,-0.023,104.0,104.0,103.0,13.4,1505.2,339.7,-0.7,1.8,2471.405,13.29,0.029,241.7
2023-03-06T08:37:03,42.805,6.029,-0.015,-0.006,-0.013,104.0,104.0,109.0,13.4,1505.2,323.9,-0.8,1.8,2471.404,13.29,0.016,248.2
2023-03-06T08:40:03,42.805,6.029,-0.023,0.035,-0.02,103.0,105.0,104.0,13.4,1505.2,334.4,-0.8,1.8,2471.388,13.29,0.041,326.7
2023-03-06T08:43:03,42.805,6.029,-0.026,0.016,-0.01,105.0,104.0,103.0,13.3,1505.2,326.3,-0.8,1.8,2471.427,13.29,0.03,301.6
2023-03-06T08:46:03,42.805,6.029,-0.04,0.008,-0.022,105.0,104.0,104.0,13.4,1505.2,327.7,-0.8,1.8,2471.419,13.29,0.04,281.3
2023-03-06T08:49:03,42.805,6.029,-0.015,0.01,-0.042,104.0,103.0,103.0,13.4,1505.2,334.7,-0.8,1.8,2471.356,13.29,0.018,303.7
2023-03-06T08:52:03,42.805,6.029,-0.037,0.012,-0.007,104.0,105.0,103.0,13.4,1505.2,328.1,-0.8,1.8,2471.419,13.29,0.038,288.0
2023-03-06T08:55:03,42.805,6.029,-0.026,-0.001,-0.032,105.0,103.0,103.0,13.4,1505.2,325.4,-0.8,1.8,2471.393,13.29,0.026,267.8
2023-03-06T08:58:03,42.805,6.029,-0.024,0.005,-0.019,105.0,104.0,103.0,13.3,1505.2,324.2,-0.8,1.8,2471.382,13.29,0.024,281.8
2023-03-06T09:04:03,42.805,6.029,-0.01,0.001,-0.021,105.0,103.0,103.0,13.4,1505.2,331.7,-0.8,1.8,2471.425,13.29,0.01,275.7
2023-03-06T09:07:03,42.805,6.029,-0.03,0.0,-0.035,104.0,103.0,103.0,13.3,1505.2,331.8,-0.8,1.8,2471.438,13.29,0.03,270.0
2023-03-06T09:10:03,42.805,6.029,-0.011,-0.003,-0.026,104.0,104.0,103.0,13.4,1505.2,316.8,-0.8,1.8,2471.458,13.29,0.011,254.7
2023-03-06T09:13:03,42.805,6.029,-0.023,-0.007,-0.022,106.0,105.0,103.0,13.4,1505.2,321.6,-0.7,1.8,2471.424,13.29,0.024,253.1
2023-03-06T09:16:03,42.805,6.029,-0.023,0.015,-0.027,104.0,104.0,102.0,13.4,1505.2,331.6,-0.7,1.9,2471.441,13.29,0.027,303.1
2023-03-06T09:19:03,42.805,6.029,-0.02,-0.003,-0.036,105.0,103.0,103.0,13.4,1505.2,318.1,-0.8,1.8,2471.408,13.29,0.02,261.5
2023-03-06T09:22:03,42.805,6.029,-0.001,0.003,-0.045,103.0,103.0,103.0,13.3,1505.2,338.5,-0.8,1.8,2471.42,13.29,0.003,341.6
2023-03-06T09:25:03,42.805,6.029,-0.011,0.022,-0.024,104.0,104.0,103.0,13.3,1505.2,324.4,-0.7,1.8,2471.434,13.29,0.024,333.4
2023-03-06T09:28:03,42.805,6.029,-0.012,0.019,-0.005,105.0,104.0,102.0,13.3,1505.2,341.2,-0.8,1.8,2471.394,13.29,0.022,327.7
2023-03-06T09:31:03,42.805,6.029,-0.02,0.007,-0.036,105.0,105.0,103.0,13.3,1505.2,327.9,-0.7,1.8,2471.418,13.29,0.021,289.3
2023-03-06T09:34:03,42.805,6.029,-0.01,-0.006,-0.036,106.0,103.0,102.0,13.4,1505.2,324.2,-0.8,1.8,2471.417,13.29,0.011,239.0
2023-03-06T09:37:03,42.805,6.029,-0.001,-0.004,-0.056,104.0,104.0,102.0,13.4,1505.2,332.5,-0.8,1.8,2471.398,13.29,0.004,194.0
2023-03-06T09:40:03,42.805,6.029,-0.025,0.01,-0.012,105.0,104.0,103.0,13.4,1505.2,321.0,-0.7,1.8,2471.389,13.29,0.026,291.8
2023-03-06T09:43:03,42.805,6.029,-0.01,0.017,-0.003,104.0,104.0,102.0,13.3,1505.2,335.4,-0.8,1.8,2471.397,13.29,0.019,329.5
2023-03-06T09:46:03,42.805,6.029,-0.014,0.008,-0.008,105.0,103.0,103.0,13.4,1505.2,334.9,-0.7,1.8,2471.378,13.29,0.016,299.7
2023-03-06T09:49:03,42.805,6.029,-0.017,0.019,-0.021,105.0,103.0,103.0,13.3,1505.2,320.6,-0.8,1.8,2471.379,13.29,0.025,318.2
2023-03-06T09:52:03,42.805,6.029,-0.025,0.025,-0.035,104.0,105.0,102.0,13.4,1505.2,318.4,-0.7,1.8,2471.375,13.29,0.035,315.0
2023-03-06T09:55:03,42.805,6.029,-0.004,0.001,-0.03,104.0,104.0,102.0,13.3,1505.2,320.9,-0.8,1.8,2471.394,13.29,0.004,284.0